Salisbury, MD

10:35 AM EDT on August 23, 2017 (GMT -0400)
Salisbury-Ocean City Wicomico Regional

Weather History for KSBY - October, 2011

Change the Weather History Date:

Sunday, October 16, 2011

  Actual Average Record
Temperature  
Mean Temperature 58 °F 57 °F  
Max Temperature 72 °F 68 °F 85 °F (1947)
Min Temperature 43 °F 46 °F 28 °F (1937)
Degree Days  
Heating Degree Days 7 9  
Month to date heating degree days 70 106  
Since 1 July heating degree days 86 154  
Cooling Degree Days 0 1  
Month to date cooling degree days 21 20  
Year to date cooling degree days 1709 1145  
Growing Degree Days 8 (Base 50)    
Moisture  
Dew Point 43 °F    
Average Humidity 61    
Maximum Humidity 92    
Minimum Humidity 29    
Precipitation  
Precipitation 0.00 in 0.12 in 1.51 in (1974)
Month to date precipitation 0.14 1.83  
Year to date precipitation 33.30 36.88  
Snow  
Snow 0.00 in 0.00 in 0.00 in (2002)
Month to date snowfall 0.0 0.0  
Since 1 July snowfall 0.0 0.0  
Snow Depth 0.00 in    
Sea Level Pressure  
Sea Level Pressure 29.95 in    
Wind  
Wind Speed 9 mph (SW)    
Max Wind Speed 21 mph    
Max Gust Speed 29 mph    
Visibility 10 miles    
Events      
T = Trace of Precipitation, MM = Missing Value Source: NWS Daily Summary

Daily Weather History Graph

Daily Weather History Graph

Search for Another Location

Airport or City:

Trip Planner

Search our weather history database for the weather conditions in past years. The results will help you decide how hot, cold, wet, or windy it might be!

Date:

Astronomy

Oct. 16, 2011 Rise Set
Actual Time 7:11 AM EDT 6:23 PM EDT
Civil Twilight 6:44 AM EDT 6:49 PM EDT
Nautical Twilight 6:14 AM EDT 7:20 PM EDT
Astronomical Twilight 5:43 AM EDT 7:50 PM EDT
Moon 9:10 PM EDT (10/16) 11:23 AM EDT (10/16)
Length of Visible Light 12h 04m
Length of Day
11h 11m
Waning Gibbous, 82% of the Moon is Illuminated
Oct 16
Waning Gibbous
Oct 19
Last Quarter
Oct 26
New
Nov 2
First Quarter
Nov 10
Full

Hourly Weather History & Observations

Time (EDT) Temp. Windchill Dew Point Humidity Pressure Visibility Wind Dir Wind Speed Gust Speed Precip Events Conditions
12:54 AM 57.9 °F - 43.0 °F 58% 29.94 in 10.0 mi WSW 5.8 mph - N/A   Clear
1:54 AM 55.0 °F - 42.1 °F 62% 29.96 in 10.0 mi WSW 3.5 mph - N/A   Clear
2:54 AM 55.0 °F - 42.1 °F 62% 29.96 in 10.0 mi Calm Calm - N/A   Clear
3:54 AM 48.0 °F - 43.0 °F 83% 29.97 in 10.0 mi South 3.5 mph - N/A   Clear
4:54 AM 44.1 °F - 39.9 °F 85% 29.98 in 10.0 mi Calm Calm - N/A   Clear
5:54 AM 45.0 °F - 41.0 °F 86% 30.01 in 10.0 mi Calm Calm - N/A   Clear
6:54 AM 45.0 °F - 41.0 °F 86% 30.02 in 10.0 mi Calm Calm - N/A   Clear
7:54 AM 45.0 °F 43.5 °F 42.1 °F 90% 30.03 in 10.0 mi SSW 3.5 mph - N/A   Clear
8:54 AM 57.0 °F - 48.0 °F 72% 30.06 in 10.0 mi SSW 4.6 mph - N/A   Clear
9:54 AM 64.0 °F - 46.9 °F 54% 30.05 in 10.0 mi WSW 8.1 mph - N/A   Clear
10:54 AM 66.9 °F - 44.1 °F 44% 30.05 in 10.0 mi WSW 10.4 mph - N/A   Clear
11:54 AM 70.0 °F - 39.9 °F 33% 30.03 in 10.0 mi SW 11.5 mph - N/A   Clear
12:54 PM 71.1 °F - 37.9 °F 30% 30.02 in 10.0 mi WSW 11.5 mph - N/A   Clear
1:54 PM 71.1 °F - 37.0 °F 29% 29.99 in 10.0 mi West 10.4 mph 20.7 mph N/A   Clear
2:54 PM 71.1 °F - 37.9 °F 30% 29.96 in 10.0 mi SW 12.7 mph 20.7 mph N/A   Clear
3:54 PM 71.1 °F - 37.9 °F 30% 29.93 in 10.0 mi SSW 12.7 mph - N/A   Clear
4:54 PM 69.1 °F - 39.0 °F 33% 29.91 in 10.0 mi South 10.4 mph - N/A   Clear
5:54 PM 64.9 °F - 44.1 °F 47% 29.88 in 10.0 mi SSW 8.1 mph - N/A   Clear
6:54 PM 62.1 °F - 44.1 °F 52% 29.87 in 10.0 mi South 9.2 mph - N/A   Clear
7:54 PM 62.1 °F - 46.0 °F 56% 29.86 in 10.0 mi South 10.4 mph - N/A   Clear
8:54 PM 63.0 °F - 48.0 °F 58% 29.85 in 10.0 mi South 12.7 mph - N/A   Clear
9:54 PM 64.9 °F - 50.0 °F 58% 29.84 in 10.0 mi South 13.8 mph 20.7 mph N/A   Clear
10:54 PM 68.0 °F - 48.9 °F 50% 29.81 in 10.0 mi SSW 16.1 mph 26.5 mph N/A   Clear
11:54 PM 69.1 °F - 48.0 °F 47% 29.80 in 10.0 mi SSW 16.1 mph 25.3 mph N/A   Clear